GFSFLT2_con_lsi_288.txt.gz
Lid_Strength_Index
9 8 7 6 5 5 6 6 6 3 1 0 0 0 0 0 0 0 0 0 0 1 1 1 1 1 1
9 8 7 5 6 7 6 6 6 4 2 1 0 0 1 1 1 1 1 2 2 2 2 2 2 2 2
7 6 7 6 7 7 7 7 6 4 3 1 0 1 1 0 1 1 2 3 3 4 4 4 4 4 3
7 7 6 6 6 6 7 7 6 6 4 2 1 0 1 1 2 3 4 4 4 5 5 6 6 5 4
7 7 7 7 7 6 6 8 8 7 6 6 3 2 2 3 3 4 4 5 5 6 6 6 6 6 6
7 7 7 6 6 6 7 8 9 6 7 8 5 5 5 5 4 4 5 5 6 6 7 7 7 7 7
7 7 7 6 6 7 7 8 8 8 7 9 7 8 5 4 4 5 5 6 7 7 8 8 7 7 7
6 6 5 5 5 6 7 8 8 7 7 10 9 9 6 5 5 6 6 7 7 8 8 8 7 7 7
5 5 5 4 4 6 7 7 9 8 8 9 9 9 9 7 6 6 7 7 8 8 8 8 7 8 8
9 9 8 8 6 4 6 7 9 10 8 9 9 9 11 10 10 10 10 8 8 8 8 8 8 11 11
10 10 10 9 9 8 6 6 8 9 8 8 10 11 11 12 11 12 12 13 13 12 8 9 9 10 13
10 11 10 11 10 10 9 9 9 9 7 9 10 11 12 13 13 13 14 14 14 14 13 10 9 9 10
11 12 12 10 10 10 10 11 11 11 10 10 9 11 11 12 15 15 15 15 14 15 15 14 14 13 13
12 11 11 11 11 10 11 12 12 13 12 11 11 12 14 14 15 15 16 17 15 16 16 15 14 14 14
12 11 11 11 11 11 12 12 13 13 14 13 13 13 14 15 16 16 17 17 17 17 17 17 15 14 14
11 11 12 12 12 12 12 13 14 14 14 15 14 14 15 14 13 17 19 19 18 17 17 19 17 15 14
12 12 12 12 12 13 13 14 14 15 16 16 17 17 19 19 17 13 19 19 19 19 18 18 19 16 15

GFSFLT2_con_lsi_291.txt.gz
Lid_Strength_Index
5 5 5 4 3 3 4 4 3 4 2 1 1 0 0 0 1 1 1 1 1 1 1 1 0 -0 -0
6 6 5 4 4 4 4 4 4 4 3 2 1 0 0 1 1 2 2 1 1 1 2 2 2 1 1
6 5 5 5 6 5 4 4 4 5 4 3 1 0 0 1 1 2 2 2 2 3 3 3 3 3 2
6 6 5 5 5 5 6 5 5 5 4 3 2 1 1 1 2 2 2 3 3 4 5 5 4 4 4
6 6 6 7 6 5 6 6 5 5 5 5 3 2 2 3 3 3 3 4 4 5 5 5 5 5 5
6 6 6 6 5 5 5 6 8 6 6 8 5 5 4 4 3 3 4 5 5 6 6 6 6 6 5
5 6 7 6 5 5 6 6 6 7 8 10 8 7 4 3 3 4 5 5 6 6 6 6 6 6 6
5 6 5 5 4 5 6 8 8 8 7 9 8 8 5 4 4 5 5 6 6 7 7 7 7 6 6
5 5 5 4 4 5 7 8 9 8 7 8 8 8 7 6 5 6 6 6 7 7 7 7 7 7 7
8 8 7 7 7 5 7 7 8 9 8 8 8 8 10 9 8 7 7 7 7 8 7 7 8 8 8
9 9 9 9 9 8 8 6 8 7 7 7 8 8 8 11 10 9 9 10 9 9 8 8 8 8 9
9 10 10 10 10 9 9 8 7 7 6 8 8 9 10 11 12 11 11 11 10 11 10 9 8 9 9
10 11 10 10 9 10 9 10 10 10 9 9 7 9 8 10 13 13 13 12 12 12 11 11 11 10 10
10 10 10 9 10 9 10 10 11 12 11 9 8 8 11 11 11 12 13 13 13 13 12 12 12 11 11
10 10 10 10 10 10 10 10 11 12 12 11 11 11 11 11 13 13 14 14 13 13 13 13 12 12 12
10 10 10 10 10 10 10 11 12 12 13 12 12 12 12 12 11 14 14 14 14 13 13 13 13 12 12
10 10 10 10 11 11 11 12 13 13 13 13 13 13 14 15 14 12 14 15 14 14 13 13 13 13 12

GFSFLT2_con_lsi_294.txt.gz
Lid_Strength_Index
4 3 4 3 3 2 2 2 2 3 3 3 2 1 1 0 0 1 1 1 2 2 2 2 2 1 0
4 4 4 4 3 3 3 2 3 3 4 3 2 2 1 0 1 1 1 2 2 2 2 2 1 1 0
5 4 5 4 4 4 4 3 3 4 3 3 2 2 0 0 1 1 2 3 3 3 3 2 2 2 1
5 5 5 5 4 5 5 3 3 4 4 4 3 2 1 0 1 2 3 3 4 4 4 3 3 3 3
5 4 5 5 5 4 5 5 6 5 4 3 3 1 2 2 3 4 3 3 4 4 4 4 4 4 3
4 4 5 4 4 5 6 7 8 4 5 5 6 5 4 4 4 4 3 4 4 5 5 5 5 4 4
3 4 5 4 5 5 6 6 6 6 6 9 7 7 5 4 3 4 4 5 5 5 5 6 5 5 5
3 4 4 4 4 4 5 7 7 7 7 9 9 8 5 4 4 4 5 5 6 6 6 6 6 5 6
3 4 4 4 4 5 8 8 10 8 7 8 9 9 7 6 5 5 5 6 6 6 6 6 6 6 6
7 7 6 6 6 4 6 8 9 9 8 8 8 8 9 8 7 6 6 6 6 6 6 6 7 7 8
9 8 8 8 7 8 8 7 9 8 7 7 8 8 7 10 8 7 8 8 8 7 7 7 7 7 8
8 8 9 9 9 9 9 8 7 7 6 6 7 6 8 10 10 10 10 10 9 9 8 7 8 8 8
9 10 10 10 9 9 9 9 9 9 7 7 7 7 7 9 11 11 11 11 9 10 10 10 10 9 10
10 9 9 8 9 9 10 9 10 10 9 8 7 7 8 9 9 11 11 12 11 11 11 11 10 10 10
9 9 9 9 9 9 8 9 9 10 10 10 9 9 9 9 10 11 12 12 12 12 11 12 11 11 11
8 9 9 9 9 9 9 9 10 11 11 10 10 10 10 11 10 12 12 13 12 12 12 12 12 11 11
9 9 9 9 9 9 10 10 11 11 11 11 10 10 11 14 13 11 13 13 13 13 12 11 11 12 11

GFSFLT2_con_lsi_297.txt.gz
Lid_Strength_Index
4 3 3 3 3 2 2 2 2 2 2 1 1 1 1 0 0 0 1 1 2 2 2 2 2 1 1
5 4 4 4 3 3 3 2 2 2 2 2 2 2 1 1 1 0 1 1 2 2 2 2 2 2 1
6 4 4 4 4 4 3 3 2 2 2 2 2 2 2 1 0 1 1 2 2 3 3 3 3 2 1
5 6 4 4 4 5 4 2 3 2 3 3 3 3 2 1 1 2 2 3 3 3 4 4 3 2 2
7 6 6 5 5 4 3 4 4 4 4 3 4 3 2 2 3 3 3 3 4 4 4 4 3 2 2
7 7 4 2 2 2 3 5 8 5 5 7 6 5 4 4 3 3 4 4 4 5 4 4 3 3 3
4 4 3 2 2 4 5 6 7 6 7 10 8 7 5 4 3 3 4 4 5 5 4 4 4 4 4
3 3 2 1 3 4 5 8 8 8 6 10 9 8 5 4 4 4 4 5 5 5 5 4 4 4 5
3 3 2 2 3 5 8 8 10 10 8 9 10 10 9 7 5 4 5 5 5 4 5 5 5 5 6
7 6 6 5 5 5 6 8 9 10 9 10 9 9 11 8 7 6 6 5 5 5 5 5 6 9 9
9 9 8 8 8 8 8 7 9 9 8 8 9 9 9 10 8 8 7 7 8 6 6 6 6 7 9
9 8 9 9 9 9 9 9 9 8 7 7 8 8 9 10 10 9 9 8 9 9 9 7 6 6 7
9 10 10 10 10 10 10 10 10 9 8 8 7 7 7 9 11 11 11 10 9 10 10 10 10 10 11
10 10 10 9 10 9 9 9 10 10 9 7 7 7 8 9 10 11 11 12 11 11 11 11 11 11 11
10 10 10 9 9 9 9 9 9 10 10 9 8 8 8 8 10 11 12 12 11 11 11 12 12 12 12
9 10 10 9 10 9 9 9 10 11 11 10 10 10 10 11 9 12 12 12 12 12 11 13 13 13 12
10 10 9 9 10 10 10 10 11 12 11 10 9 9 12 15 12 9 12 13 13 13 13 13 14 13 13

GFSFLT2_con_lsi_300.txt.gz
Lid_Strength_Index
6 5 5 4 3 3 2 2 2 1 0 0 1 1 1 0 -0 -1 -1 -0 -0 0 1 2 2 2 2
6 6 5 5 4 4 3 3 3 2 1 1 1 0 1 -0 0 -0 -0 -0 1 1 1 2 1 1 1
8 7 6 5 6 5 4 3 3 1 -0 -1 -1 1 1 1 1 1 0 1 1 2 2 2 2 1 1
9 8 8 7 6 7 6 4 2 0 -0 0 1 1 1 2 1 1 1 2 2 3 3 3 2 2 2
8 8 8 7 7 6 5 4 2 1 1 3 3 2 2 1 1 2 2 3 3 3 3 3 3 2 2
7 7 6 5 5 5 4 4 4 3 3 7 5 4 3 3 2 2 3 4 4 4 4 3 3 3 3
5 4 5 4 4 4 3 3 6 6 7 9 7 6 4 3 2 3 3 4 4 5 5 3 3 3 3
3 3 3 3 3 4 5 7 7 7 6 10 9 8 5 4 3 4 4 4 5 5 4 3 3 4 4
4 3 3 3 3 5 8 9 9 9 8 9 9 9 9 7 6 4 4 5 5 5 4 4 4 4 5
7 6 6 6 6 6 6 9 9 9 9 9 9 9 11 9 9 7 6 4 4 4 4 4 5 9 9
8 7 7 8 8 8 8 8 9 9 8 8 9 9 11 11 9 8 8 7 7 6 4 5 5 7 9
7 8 9 10 10 10 9 9 9 8 7 8 9 9 11 12 11 10 9 9 8 8 8 5 5 6 7
8 9 9 9 9 10 10 9 9 9 8 8 7 8 8 10 11 11 11 9 9 9 9 9 10 10 10
8 9 9 9 10 10 10 10 10 10 8 7 7 7 8 9 10 11 10 12 11 10 10 10 10 10 11
9 9 9 9 10 9 9 9 10 11 11 10 9 8 8 8 10 10 11 11 11 11 11 12 12 11 12
9 9 10 10 10 9 9 10 11 11 11 10 10 10 10 10 8 11 11 12 11 11 11 13 13 12 11
9 10 10 10 10 10 10 11 14 12 13 11 10 11 12 15 12 8 12 12 12 12 12 13 14 13 12

GFSFLT2_con_lsi_306.txt.gz
Lid_Strength_Index
11 10 10 9 8 8 7 7 6 5 4 4 3 3 2 2 1 0 -1 -1 -1 -1 -2 -2 -1 -0 0
11 10 9 8 7 7 7 6 7 5 4 3 3 3 2 1 0 -1 -1 -1 -1 -1 -1 -1 -0 0 0
11 9 8 7 7 7 7 7 6 5 4 3 3 2 1 -0 -1 -1 -0 0 -0 -0 -0 -0 0 -0 -0
10 10 8 8 7 8 8 6 6 5 3 2 1 0 -0 -1 -1 0 1 0 -0 0 1 1 0 0 1
10 10 9 9 9 8 7 7 6 5 4 2 4 3 2 0 0 1 1 0 0 1 2 1 2 2 2
10 11 10 9 8 8 8 8 10 5 5 5 5 4 3 2 1 1 1 1 1 1 1 2 2 3 3
10 9 9 8 7 8 8 7 7 5 6 8 7 7 4 3 2 1 1 2 2 3 3 2 2 3 3
8 8 7 7 6 6 6 6 6 6 6 8 8 9 6 3 2 2 2 2 3 3 2 3 3 3 3
6 5 5 4 3 5 8 8 7 7 7 8 9 9 9 8 5 3 3 4 3 3 3 3 3 3 4
8 7 5 5 4 6 7 7 7 7 7 9 9 9 10 9 8 7 5 4 3 4 4 4 5 9 8
8 7 7 7 7 7 7 7 8 7 7 8 9 10 10 10 9 9 8 8 7 5 4 4 4 6 8
8 8 7 6 7 7 7 7 7 8 8 7 8 9 10 12 11 10 9 9 8 8 7 4 4 5 5
8 7 6 6 7 7 8 7 8 8 8 8 8 9 10 11 12 11 10 10 9 9 8 8 8 8 8
7 6 6 7 7 8 9 9 9 9 9 8 8 8 10 10 11 11 11 12 9 10 10 9 9 10 10
7 6 6 7 8 8 8 9 10 11 10 9 8 8 8 9 11 10 11 11 10 10 10 11 11 11 11
6 6 8 9 9 9 9 10 11 11 10 10 9 9 10 10 8 10 10 11 10 10 10 13 13 11 10
6 8 9 10 9 10 10 11 11 12 12 11 10 10 13 15 11 8 10 10 10 11 11 12 13 12 11

GFSFLT2_con_lsi_309.txt.gz
Lid_Strength_Index
12 10 11 10 9 8 7 7 6 4 3 3 3 3 3 3 2 2 1 1 -0 -1 -2 -2 -1 -1 -2
12 11 11 10 9 9 8 7 7 5 4 4 3 3 2 2 1 1 -1 -1 -1 -1 -1 -1 -1 -1 -1
12 11 10 10 10 9 9 8 6 5 4 4 4 3 2 2 0 -0 -1 -1 -1 -1 -1 -1 -1 -1 -1
11 12 11 10 10 10 10 8 8 6 5 4 4 4 3 1 -0 -1 0 0 -1 -0 -1 -1 -1 0 -0
12 12 12 11 11 9 10 9 8 7 7 6 6 6 4 2 0 0 1 -0 -1 0 0 1 1 1 1
12 13 12 11 10 10 9 9 10 6 7 8 6 6 4 3 1 1 1 1 1 2 2 1 2 2 2
12 12 11 10 9 9 8 8 9 7 7 8 6 6 5 4 2 1 1 1 1 1 2 2 3 3 3
10 9 9 8 7 7 7 7 7 6 5 8 7 7 7 5 2 2 2 2 2 2 2 2 3 3 3
7 6 6 6 5 6 8 9 9 7 5 7 7 8 8 8 6 3 3 2 2 3 3 3 3 3 4
9 8 7 7 6 6 7 9 9 8 6 8 7 8 9 8 8 7 6 3 3 3 3 4 5 7 7
10 9 9 8 7 6 6 7 8 8 6 7 7 8 9 9 9 8 8 7 5 5 4 4 4 6 8
11 10 9 8 6 6 7 7 7 7 7 7 8 8 9 10 10 9 9 8 7 7 7 5 5 5 5
11 9 8 6 6 6 8 7 7 7 7 7 7 8 8 10 11 10 10 9 8 8 9 8 9 8 9
9 8 7 6 6 7 10 8 9 8 8 7 7 8 9 10 11 12 10 11 10 9 10 10 10 10 10
9 8 7 6 7 7 8 9 9 10 10 9 9 8 8 9 11 10 10 10 10 10 10 11 11 10 10
8 7 7 7 8 9 8 9 10 10 11 11 9 10 10 9 8 10 10 11 10 9 10 12 12 11 10
7 6 7 8 9 10 9 10 11 12 13 13 12 11 12 13 11 8 10 10 11 10 10 12 13 11 10